N375 KSRQ-KMIA

Flight info

Callsign N375
Flight time 1h 7m
Altitude 9000
Route DCT CEXAN DCT
Aircraft DA40/L-VGD/A

Departure

Time 2026-04-26 18:01
Airport Sarasota Bradenton International Airport (KSRQ)

Arrival

Time 2026-04-26 19:08
Airport Miami International Airport (KMIA)
Time Latitude Longitude Altitude Speed Heading
2026-04-26 17:40 27.40139 -82.55238 20 ft 0 kts 181°
2026-04-26 17:54 27.40135 -82.55238 20 ft 1 kts 184°
2026-04-26 17:54 27.40118 -82.55244 20 ft 0 kts 253°
2026-04-26 17:55 27.40117 -82.55298 20 ft 14 kts 267°
2026-04-26 17:55 27.40118 -82.55386 20 ft 9 kts 265°
2026-04-26 17:55 27.40119 -82.55482 19 ft 14 kts 277°
2026-04-26 17:55 27.40118 -82.55592 18 ft 12 kts 274°
2026-04-26 17:56 27.40119 -82.55696 17 ft 13 kts 268°
2026-04-26 17:56 27.40090 -82.55891 17 ft 10 kts 264°
2026-04-26 17:57 27.40196 -82.56028 17 ft 16 kts 311°
2026-04-26 17:57 27.40292 -82.56137 17 ft 17 kts 314°
2026-04-26 17:57 27.40350 -82.56202 17 ft 7 kts 316°
2026-04-26 17:57 27.40390 -82.56270 17 ft 2 kts 301°
2026-04-26 17:58 27.40453 -82.56348 17 ft 10 kts 304°
2026-04-26 17:59 27.40506 -82.56486 19 ft 1 kts 264°
2026-04-26 17:59 27.40479 -82.56532 20 ft 12 kts 225°
2026-04-26 17:59 27.40435 -82.56532 20 ft 0 kts 133°
2026-04-26 17:59 27.40423 -82.56519 20 ft 17 kts 135°
2026-04-26 18:00 27.40191 -82.56251 23 ft 73 kts 137°
2026-04-26 18:00 27.39820 -82.55769 153 ft 88 kts 137°
2026-04-26 18:00 27.39398 -82.55278 385 ft 86 kts 141°
2026-04-26 18:00 27.38936 -82.54809 532 ft 96 kts 142°
2026-04-26 18:01 27.38454 -82.54306 761 ft 95 kts 139°
2026-04-26 18:01 27.37988 -82.53763 976 ft 97 kts 136°
2026-04-26 18:01 27.37516 -82.53172 1141 ft 104 kts 135°
2026-04-26 18:01 27.37046 -82.52589 1390 ft 100 kts 135°
2026-04-26 18:02 27.36556 -82.51990 1557 ft 106 kts 134°
2026-04-26 18:02 27.36393 -82.51788 1632 ft 105 kts 131°
2026-04-26 18:02 27.35743 -82.50665 2050 ft 101 kts 123°
2026-04-26 18:02 27.35252 -82.50113 2273 ft 101 kts 137°
2026-04-26 18:03 27.34733 -82.49583 2510 ft 100 kts 140°
2026-04-26 18:03 27.34206 -82.49051 2732 ft 102 kts 140°
2026-04-26 18:03 27.33692 -82.48526 2960 ft 101 kts 138°
2026-04-26 18:03 27.33170 -82.47992 3170 ft 102 kts 139°
2026-04-26 18:04 27.32641 -82.47454 3395 ft 102 kts 138°
2026-04-26 18:04 27.32113 -82.46916 3607 ft 104 kts 137°
2026-04-26 18:04 27.31580 -82.46371 3828 ft 104 kts 137°
2026-04-26 18:05 27.30497 -82.45264 4257 ft 107 kts 137°
2026-04-26 18:05 27.29954 -82.44708 4533 ft 101 kts 137°
2026-04-26 18:05 27.29462 -82.44207 4820 ft 92 kts 136°
2026-04-26 18:05 27.28995 -82.43729 5050 ft 89 kts 137°
2026-04-26 18:06 27.28536 -82.43259 5246 ft 90 kts 137°
2026-04-26 18:06 27.28060 -82.42771 5445 ft 93 kts 136°
2026-04-26 18:06 27.27583 -82.42284 5659 ft 93 kts 136°
2026-04-26 18:06 27.27108 -82.41798 5882 ft 92 kts 136°
2026-04-26 18:07 27.26619 -82.41301 6075 ft 95 kts 136°
2026-04-26 18:07 27.26131 -82.40802 6274 ft 96 kts 136°
2026-04-26 18:07 27.25641 -82.40300 6493 ft 94 kts 136°
2026-04-26 18:07 27.25315 -82.39967 6634 ft 94 kts 136°
2026-04-26 18:08 27.24659 -82.39298 6898 ft 98 kts 136°
2026-04-26 18:08 27.24102 -82.38729 6965 ft 118 kts 137°
2026-04-26 18:08 27.23449 -82.38065 7008 ft 135 kts 137°
2026-04-26 18:08 27.22704 -82.37309 7002 ft 148 kts 137°
2026-04-26 18:09 27.21926 -82.36516 6999 ft 154 kts 137°
2026-04-26 18:09 27.21114 -82.35693 7001 ft 157 kts 138°
2026-04-26 18:09 27.20296 -82.34861 6997 ft 159 kts 138°
2026-04-26 18:09 27.19481 -82.34029 6993 ft 158 kts 138°
2026-04-26 18:10 27.18699 -82.33236 6985 ft 149 kts 138°
2026-04-26 18:10 27.17926 -82.32446 6989 ft 148 kts 138°
2026-04-26 18:10 27.17171 -82.31677 6991 ft 146 kts 138°
2026-04-26 18:10 27.16427 -82.30920 6989 ft 145 kts 138°
2026-04-26 18:11 27.15679 -82.30158 6985 ft 146 kts 137°
2026-04-26 18:11 27.14917 -82.29382 6982 ft 149 kts 138°
2026-04-26 18:11 27.14136 -82.28587 6961 ft 151 kts 139°
2026-04-26 18:11 27.13352 -82.27791 6942 ft 153 kts 139°
2026-04-26 18:12 27.12566 -82.26991 6934 ft 152 kts 138°
2026-04-26 18:12 27.11775 -82.26188 6932 ft 151 kts 138°
2026-04-26 18:12 27.11006 -82.25407 6931 ft 150 kts 138°
2026-04-26 18:12 27.10224 -82.24610 6955 ft 149 kts 138°
2026-04-26 18:13 27.09452 -82.23825 6966 ft 150 kts 138°
2026-04-26 18:13 27.08682 -82.23044 6985 ft 149 kts 137°
2026-04-26 18:13 27.07912 -82.22261 6997 ft 149 kts 138°
2026-04-26 18:13 27.07399 -82.21739 6994 ft 149 kts 138°
2026-04-26 18:14 27.06364 -82.20689 6994 ft 150 kts 138°
2026-04-26 18:14 27.05579 -82.19891 6992 ft 151 kts 138°
2026-04-26 18:14 27.04804 -82.19106 6993 ft 150 kts 138°
2026-04-26 18:14 27.04026 -82.18317 6990 ft 150 kts 138°
2026-04-26 18:15 27.03254 -82.17533 6990 ft 150 kts 139°
2026-04-26 18:15 27.02471 -82.16740 6985 ft 150 kts 138°
2026-04-26 18:15 27.01699 -82.15958 6995 ft 150 kts 138°
2026-04-26 18:15 27.00916 -82.15166 6994 ft 150 kts 138°
2026-04-26 18:16 27.00140 -82.14378 6995 ft 150 kts 138°
2026-04-26 18:16 26.98593 -82.12810 6994 ft 150 kts 138°
2026-04-26 18:16 26.97809 -82.12015 6994 ft 150 kts 137°
2026-04-26 18:17 26.97039 -82.11236 6996 ft 150 kts 138°
2026-04-26 18:17 26.96260 -82.10447 6995 ft 151 kts 138°
2026-04-26 18:17 26.95480 -82.09657 6996 ft 150 kts 138°
2026-04-26 18:17 26.94696 -82.08862 6993 ft 150 kts 138°
2026-04-26 18:18 26.93920 -82.08076 6995 ft 150 kts 137°
2026-04-26 18:18 26.93295 -82.07165 6991 ft 150 kts 126°
2026-04-26 18:18 26.92689 -82.06207 6994 ft 150 kts 124°
2026-04-26 18:18 26.92086 -82.05248 6998 ft 149 kts 123°
2026-04-26 18:19 26.91485 -82.04288 6992 ft 150 kts 123°
2026-04-26 18:19 26.91327 -82.04036 6993 ft 150 kts 123°
2026-04-26 18:19 26.90855 -82.03281 6997 ft 150 kts 123°
2026-04-26 18:19 26.90256 -82.02328 6995 ft 150 kts 123°
2026-04-26 18:20 26.89649 -82.01359 6992 ft 150 kts 124°
2026-04-26 18:20 26.89055 -82.00410 6993 ft 149 kts 124°
2026-04-26 18:20 26.88456 -81.99457 6993 ft 149 kts 124°
2026-04-26 18:20 26.88253 -81.99131 6993 ft 149 kts 124°
2026-04-26 18:21 26.87261 -81.97554 6995 ft 149 kts 124°
2026-04-26 18:21 26.86666 -81.96605 6993 ft 150 kts 124°
2026-04-26 18:21 26.86066 -81.95653 6988 ft 149 kts 123°
2026-04-26 18:21 26.85463 -81.94692 6992 ft 149 kts 123°
2026-04-26 18:22 26.84865 -81.93741 6999 ft 150 kts 124°
2026-04-26 18:22 26.84265 -81.92783 6995 ft 150 kts 123°
2026-04-26 18:22 26.83668 -81.91830 6991 ft 150 kts 124°
2026-04-26 18:22 26.83065 -81.90870 6993 ft 149 kts 123°
2026-04-26 18:23 26.82470 -81.89922 6987 ft 149 kts 124°
2026-04-26 18:23 26.81874 -81.88973 6989 ft 149 kts 124°
2026-04-26 18:23 26.81270 -81.88015 6995 ft 149 kts 123°
2026-04-26 18:23 26.80675 -81.87066 6992 ft 149 kts 123°
2026-04-26 18:24 26.80078 -81.86118 6995 ft 149 kts 123°
2026-04-26 18:24 26.79472 -81.85156 6989 ft 150 kts 123°
2026-04-26 18:24 26.78875 -81.84207 6990 ft 150 kts 124°
2026-04-26 18:24 26.78273 -81.83250 6989 ft 150 kts 124°
2026-04-26 18:25 26.77671 -81.82293 6984 ft 150 kts 124°
2026-04-26 18:25 26.77069 -81.81339 6984 ft 149 kts 124°
2026-04-26 18:25 26.76473 -81.80395 6984 ft 150 kts 123°
2026-04-26 18:25 26.75871 -81.79437 6982 ft 149 kts 124°
2026-04-26 18:26 26.75269 -81.78484 6985 ft 150 kts 124°
2026-04-26 18:26 26.74674 -81.77538 6994 ft 149 kts 123°
2026-04-26 18:26 26.74079 -81.76589 7004 ft 149 kts 124°
2026-04-26 18:26 26.73477 -81.75635 7003 ft 149 kts 123°
2026-04-26 18:27 26.72880 -81.74687 7003 ft 149 kts 124°
2026-04-26 18:27 26.72278 -81.73735 7005 ft 149 kts 125°
2026-04-26 18:27 26.71681 -81.72787 7006 ft 149 kts 124°
2026-04-26 18:27 26.71077 -81.71828 7013 ft 149 kts 125°
2026-04-26 18:28 26.70475 -81.70876 7007 ft 150 kts 125°
2026-04-26 18:28 26.69874 -81.69925 7004 ft 150 kts 124°
2026-04-26 18:28 26.69277 -81.68982 7005 ft 150 kts 124°
2026-04-26 18:28 26.68674 -81.68025 7003 ft 150 kts 124°
2026-04-26 18:29 26.68071 -81.67072 7004 ft 150 kts 124°
2026-04-26 18:29 26.67466 -81.66114 6999 ft 151 kts 124°
2026-04-26 18:29 26.66859 -81.65154 7007 ft 150 kts 124°
2026-04-26 18:29 26.66255 -81.64195 6992 ft 151 kts 124°
2026-04-26 18:30 26.65647 -81.63235 6986 ft 151 kts 124°
2026-04-26 18:30 26.65048 -81.62291 6997 ft 149 kts 124°
2026-04-26 18:30 26.64449 -81.61340 7002 ft 149 kts 124°
2026-04-26 18:30 26.63851 -81.60395 7003 ft 149 kts 124°
2026-04-26 18:31 26.63244 -81.59436 7002 ft 150 kts 124°
2026-04-26 18:31 26.62642 -81.58483 7000 ft 150 kts 124°
2026-04-26 18:31 26.62043 -81.57538 7005 ft 149 kts 124°
2026-04-26 18:31 26.61434 -81.56574 6999 ft 150 kts 124°
2026-04-26 18:32 26.60831 -81.55624 6989 ft 151 kts 124°
2026-04-26 18:32 26.60222 -81.54663 6997 ft 150 kts 124°
2026-04-26 18:32 26.59621 -81.53715 7003 ft 150 kts 124°
2026-04-26 18:32 26.59020 -81.52764 7004 ft 150 kts 124°
2026-04-26 18:33 26.58422 -81.51820 7002 ft 150 kts 124°
2026-04-26 18:33 26.57818 -81.50868 6999 ft 150 kts 124°
2026-04-26 18:33 26.57216 -81.49918 7002 ft 150 kts 124°
2026-04-26 18:33 26.56601 -81.48948 6982 ft 152 kts 124°
2026-04-26 18:34 26.55990 -81.47985 6962 ft 153 kts 124°
2026-04-26 18:34 26.55377 -81.47021 6958 ft 151 kts 124°
2026-04-26 18:34 26.54773 -81.46069 6967 ft 151 kts 124°
2026-04-26 18:34 26.54160 -81.45103 6965 ft 151 kts 124°
2026-04-26 18:35 26.53549 -81.44143 6961 ft 151 kts 125°
2026-04-26 18:35 26.52941 -81.43187 6946 ft 151 kts 124°
2026-04-26 18:35 26.52329 -81.42227 6951 ft 151 kts 124°
2026-04-26 18:35 26.51725 -81.41273 6951 ft 150 kts 124°
2026-04-26 18:36 26.51122 -81.40322 6969 ft 148 kts 124°
2026-04-26 18:36 26.50521 -81.39376 6971 ft 149 kts 124°
2026-04-26 18:36 26.49919 -81.38430 6959 ft 150 kts 124°
2026-04-26 18:36 26.49310 -81.37471 6957 ft 151 kts 124°
2026-04-26 18:37 26.48703 -81.36520 6948 ft 151 kts 124°
2026-04-26 18:37 26.48100 -81.35567 6949 ft 150 kts 124°
2026-04-26 18:37 26.47492 -81.34610 6943 ft 150 kts 124°
2026-04-26 18:37 26.46887 -81.33662 6940 ft 150 kts 125°
2026-04-26 18:38 26.46287 -81.32715 6948 ft 149 kts 125°
2026-04-26 18:38 26.45682 -81.31770 6947 ft 148 kts 125°
2026-04-26 18:38 26.45082 -81.30823 6939 ft 149 kts 125°
2026-04-26 18:38 26.44482 -81.29885 6941 ft 148 kts 126°
2026-04-26 18:39 26.43890 -81.28955 6948 ft 148 kts 126°
2026-04-26 18:39 26.43295 -81.28024 6949 ft 147 kts 124°
2026-04-26 18:39 26.42698 -81.27084 6950 ft 147 kts 125°
2026-04-26 18:39 26.42110 -81.26163 6940 ft 147 kts 124°
2026-04-26 18:40 26.41513 -81.25227 6944 ft 147 kts 124°
2026-04-26 18:40 26.40919 -81.24295 6949 ft 147 kts 125°
2026-04-26 18:40 26.40325 -81.23361 6950 ft 148 kts 125°
2026-04-26 18:40 26.39734 -81.22433 6950 ft 148 kts 125°
2026-04-26 18:41 26.39135 -81.21500 6941 ft 148 kts 124°
2026-04-26 18:41 26.38544 -81.20568 6938 ft 147 kts 125°
2026-04-26 18:41 26.37944 -81.19627 6952 ft 147 kts 125°
2026-04-26 18:41 26.37349 -81.18697 6950 ft 148 kts 125°
2026-04-26 18:42 26.36759 -81.17771 6954 ft 148 kts 125°
2026-04-26 18:42 26.36159 -81.16835 6954 ft 148 kts 126°
2026-04-26 18:42 26.35562 -81.15897 6947 ft 148 kts 125°
2026-04-26 18:42 26.34963 -81.14964 6953 ft 147 kts 125°
2026-04-26 18:43 26.34367 -81.14033 6951 ft 148 kts 124°
2026-04-26 18:43 26.33774 -81.13102 6944 ft 147 kts 124°
2026-04-26 18:43 26.33179 -81.12172 6972 ft 144 kts 125°
2026-04-26 18:43 26.32587 -81.11243 6938 ft 147 kts 124°
2026-04-26 18:44 26.31998 -81.10319 6947 ft 147 kts 125°
2026-04-26 18:44 26.31397 -81.09383 6936 ft 147 kts 126°
2026-04-26 18:44 26.30807 -81.08460 6933 ft 147 kts 126°
2026-04-26 18:44 26.30206 -81.07523 6937 ft 147 kts 125°
2026-04-26 18:45 26.29616 -81.06600 6939 ft 148 kts 124°
2026-04-26 18:45 26.29017 -81.05666 6939 ft 148 kts 125°
2026-04-26 18:45 26.28414 -81.04726 6947 ft 148 kts 125°
2026-04-26 18:45 26.27816 -81.03790 6940 ft 149 kts 124°
2026-04-26 18:46 26.27216 -81.02853 6938 ft 149 kts 125°
2026-04-26 18:46 26.26617 -81.01914 6924 ft 149 kts 125°
2026-04-26 18:46 26.26014 -81.00975 6920 ft 148 kts 125°
2026-04-26 18:46 26.25420 -81.00050 6922 ft 147 kts 125°
2026-04-26 18:47 26.24883 -80.99077 6907 ft 147 kts 108°
2026-04-26 18:47 26.24937 -80.97956 6676 ft 153 kts 54°
2026-04-26 18:47 26.25851 -80.97618 6376 ft 151 kts 332°
2026-04-26 18:47 26.26190 -80.98636 6253 ft 145 kts 253°
2026-04-26 18:48 26.25342 -80.99174 6017 ft 163 kts 176°
2026-04-26 18:48 26.24474 -80.98503 5997 ft 151 kts 121°
2026-04-26 18:48 26.23974 -80.97564 6131 ft 140 kts 115°
2026-04-26 18:48 26.23612 -80.96564 6185 ft 135 kts 100°
2026-04-26 18:49 26.23519 -80.95564 6313 ft 130 kts 91°
2026-04-26 18:49 26.23582 -80.94504 6126 ft 145 kts 77°
2026-04-26 18:49 26.23455 -80.93452 6151 ft 145 kts 126°
2026-04-26 18:49 26.22753 -80.92965 6704 ft 106 kts 156°
2026-04-26 18:50 26.22252 -80.92323 6834 ft 116 kts 113°
2026-04-26 18:50 26.21740 -80.91568 6916 ft 129 kts 137°
2026-04-26 18:50 26.20957 -80.90990 6934 ft 140 kts 157°
2026-04-26 18:50 26.20000 -80.90683 6938 ft 146 kts 175°
2026-04-26 18:51 26.18959 -80.90665 6920 ft 151 kts 178°
2026-04-26 18:51 26.18070 -80.90087 6923 ft 154 kts 127°
2026-04-26 18:51 26.17626 -80.89012 6934 ft 154 kts 112°
2026-04-26 18:51 26.17161 -80.87922 6921 ft 155 kts 116°
2026-04-26 18:52 26.16648 -80.86874 6931 ft 156 kts 119°
2026-04-26 18:52 26.16087 -80.85832 6931 ft 158 kts 122°
2026-04-26 18:52 26.15493 -80.84800 6936 ft 158 kts 123°
2026-04-26 18:52 26.14883 -80.83771 6916 ft 158 kts 125°
2026-04-26 18:53 26.14263 -80.82772 6922 ft 157 kts 125°
2026-04-26 18:53 26.13641 -80.81776 6923 ft 157 kts 124°
2026-04-26 18:53 26.13016 -80.80782 6930 ft 157 kts 124°
2026-04-26 18:53 26.12385 -80.79787 6925 ft 157 kts 124°
2026-04-26 18:54 26.11755 -80.78800 6921 ft 156 kts 124°
2026-04-26 18:54 26.11120 -80.77813 6928 ft 156 kts 124°
2026-04-26 18:54 26.10481 -80.76819 6929 ft 157 kts 124°
2026-04-26 18:54 26.09851 -80.75838 6933 ft 157 kts 126°
2026-04-26 18:55 26.09212 -80.74849 6934 ft 157 kts 125°
2026-04-26 18:55 26.08576 -80.73854 6935 ft 157 kts 123°
2026-04-26 18:55 26.07939 -80.72860 6939 ft 157 kts 124°
2026-04-26 18:55 26.07307 -80.71877 6928 ft 157 kts 125°
2026-04-26 18:56 26.06672 -80.70891 6924 ft 157 kts 125°
2026-04-26 18:56 26.06033 -80.69901 6920 ft 155 kts 125°
2026-04-26 18:56 26.05401 -80.68919 6952 ft 156 kts 125°
2026-04-26 18:56 26.04668 -80.68018 6923 ft 157 kts 133°
2026-04-26 18:57 26.03918 -80.67182 6845 ft 147 kts 135°
2026-04-26 18:57 26.03683 -80.66922 6767 ft 149 kts 136°
2026-04-26 18:57 26.02442 -80.65559 6415 ft 151 kts 136°
2026-04-26 18:57 26.01697 -80.64745 6236 ft 150 kts 135°
2026-04-26 18:58 26.00947 -80.63932 6039 ft 149 kts 135°
2026-04-26 18:58 26.00202 -80.63119 5835 ft 148 kts 136°
2026-04-26 18:58 25.99466 -80.62318 5632 ft 148 kts 136°
2026-04-26 18:58 25.98740 -80.61525 5455 ft 146 kts 136°
2026-04-26 18:59 25.98006 -80.60728 5274 ft 146 kts 137°
2026-04-26 18:59 25.97278 -80.59938 5090 ft 145 kts 136°
2026-04-26 18:59 25.96564 -80.59163 4918 ft 144 kts 136°
2026-04-26 18:59 25.95847 -80.58385 4720 ft 144 kts 137°
2026-04-26 19:00 25.95127 -80.57601 4513 ft 144 kts 137°
2026-04-26 19:00 25.94408 -80.56821 4319 ft 143 kts 136°
2026-04-26 19:00 25.93693 -80.56046 4121 ft 143 kts 136°
2026-04-26 19:00 25.92980 -80.55273 3942 ft 142 kts 138°
2026-04-26 19:01 25.92268 -80.54500 3742 ft 142 kts 137°
2026-04-26 19:01 25.91798 -80.53981 3608 ft 143 kts 136°
2026-04-26 19:01 25.91112 -80.52741 3355 ft 142 kts 118°
2026-04-26 19:01 25.90876 -80.52066 3246 ft 140 kts 114°
2026-04-26 19:02 25.90737 -80.51727 3179 ft 141 kts 116°
2026-04-26 19:02 25.90059 -80.50132 2973 ft 132 kts 118°
2026-04-26 19:02 25.89785 -80.49545 2959 ft 126 kts 120°
2026-04-26 19:02 25.89647 -80.49261 2953 ft 123 kts 120°
2026-04-26 19:03 25.88827 -80.47593 2960 ft 123 kts 121°
2026-04-26 19:03 25.88248 -80.46451 2967 ft 130 kts 121°
2026-04-26 19:03 25.87793 -80.45563 2967 ft 133 kts 122°
2026-04-26 19:03 25.87335 -80.44666 2969 ft 134 kts 121°
2026-04-26 19:04 25.86889 -80.43751 2965 ft 134 kts 125°
2026-04-26 19:04 25.86411 -80.42867 2918 ft 127 kts 121°
2026-04-26 19:04 25.85975 -80.41975 2384 ft 136 kts 120°
2026-04-26 19:04 25.85558 -80.41097 2124 ft 122 kts 120°
2026-04-26 19:05 25.84693 -80.39677 1894 ft 112 kts 121°
2026-04-26 19:05 25.84385 -80.38839 1693 ft 129 kts 115°
2026-04-26 19:05 25.84020 -80.37968 1663 ft 123 kts 121°
2026-04-26 19:06 25.83591 -80.37141 1459 ft 131 kts 124°
2026-04-26 19:06 25.83091 -80.36304 1314 ft 126 kts 128°
2026-04-26 19:06 25.82585 -80.35488 1084 ft 127 kts 121°
2026-04-26 19:06 25.82182 -80.34611 930 ft 130 kts 120°
2026-04-26 19:07 25.81772 -80.33733 836 ft 127 kts 124°
2026-04-26 19:07 25.81294 -80.32868 632 ft 128 kts 125°
2026-04-26 19:07 25.80865 -80.32082 531 ft 116 kts 123°
2026-04-26 19:07 25.80507 -80.31329 306 ft 105 kts 126°
2026-04-26 19:08 25.80168 -80.30724 122 ft 74 kts 121°
2026-04-26 19:08 25.79947 -80.30250 33 ft 67 kts 125°
2026-04-26 19:08 25.79734 -80.29842 6 ft 40 kts 121°
2026-04-26 19:08 25.79651 -80.29688 6 ft 24 kts 118°
2026-04-26 19:09 25.79582 -80.29551 6 ft 18 kts 115°
2026-04-26 19:09 25.79548 -80.29488 6 ft 2 kts 104°
2026-04-26 19:09 25.79598 -80.29457 6 ft 14 kts 355°
2026-04-26 19:09 25.79625 -80.29439 6 ft 0 kts 59°
2026-04-26 19:10 25.79627 -80.29436 6 ft 5 kts 65°
2026-04-26 19:10 25.79620 -80.29376 6 ft 0 kts 104°
2026-04-26 19:10 25.79643 -80.29394 6 ft 13 kts 315°
2026-04-26 19:11 25.79725 -80.29424 6 ft 13 kts 351°
2026-04-26 19:11 25.79853 -80.29408 6 ft 16 kts
2026-04-26 19:11 25.79935 -80.29383 6 ft 15 kts
2026-04-26 19:11 25.80015 -80.29370 6 ft 0 kts 18°